COSMOS 1067

Satellite information

Favourite Embed

Satellite Type and Status

PAYLOADIN ORBIT

Key statistics

Satellite COSMOS 1067 at a glance.

Uptime

17059

Days in orbit

Revolutions

≈ 13.2

Per day

Orbit

LEO

Low Earth Orbit

Inclination

83.0

Latest

Satellite identification and parameters

Extended collection of information and parameters for COSMOS 1067.

Object identification

Identified? True

Debris? False

Object name: COSMOS 1067

International designator: 1978-122A

Object number (NORAD): 11168

Object ID (CCSDS): 11168

Country: COMMONWEALTH OF INDEPENDENT STATES (CIS)

Current information (Y/N): Y

RCS size: LARGE

Orbital parameters

Period: 109.072 minutes

Inclination: 82.9712 deg

SMA: 7561.998 km

Apoapsis: 1211.129 km

Periapsis: 1156.598 km

RAAN: 43.684 deg

Eccentricy: 0.00360558

Argument of periapsis: 178.6299 deg

Mean anomaly: 241.8915 deg

Mean motion: 13.20224809 rev/day

Mean motion (dot): -0.00000001 rev/day2

B* drag term: -0.000034177056 1/REarth

Two-line elements (TLE)

Creation date: Sept. 8, 2025, 6:18 p.m.

Reference frame: TEME

Reference center: EARTH

Epoch: Sept. 8, 2025, 12:08 p.m. UTC

TLE line 0: 0 COSMOS 1067

TLE line 1: 1 11168U 78122A 25251.50621603 -.00000001 00000-0 -34177-4 0 9994

TLE line 2: 2 11168 82.9712 43.6840 0036056 178.6299 241.8915 13.20224809233936

Live tracking on map

Real-time ground track for satellite COSMOS 1067.

In-orbit conjunctions

There are no conjunctions computed for COSMOS 1067, at the moment. Check back to stay up to date, as we update our databases every day.

Go to all conjunctions

Associated space launch

High-resolution film-return Zenit reconnaissance satellite

COSMOS 1067 was lifted into orbit during the mission ‘Soyuz U | Zenit-4MKM 25’, on board a Soyuz U space rocket.

The launch took place on Dec. 26, 1978, 3:30 p.m. from 43/4 (43R).

For more information about the launch, click the button.

Launch to space Soyuz U | Zenit-4MKM 25
Soyuz U | Zenit-4MKM 25

Agency: N/A

Status: Launch Successful

Launch date: Dec. 26, 1978, 3:30 p.m. UTC

Rocket: Soyuz U

Launch pad: 43/4 (43R)

Location: Plesetsk Cosmodrome, Russian Federation

...

Latest news about this satellite

There are no fresh news available about this satellite. Check back as we update our databases every day.


Newsletter sign-up

Weekly statistics, charts and insights to help you stay on top of the space industry.